Time,TemperatureF,DewpointF,PressureIn,WindDirection,WindDirectionDegrees,WindSpeedMPH,WindSpeedGustMPH,Humidity,HourlyPrecipIn,Conditions,Clouds,dailyrainin,SoftwareType,DateUTC
2013-07-06 00:01:00,74.1,71.0,30.14,ENE,78,0.0,0.0,90,0.00,,---,0.00,VWS V14.01,2013-07-06 04:01:00,
2013-07-06 00:02:00,74.0,70.9,30.14,ENE,78,0.0,0.0,90,0.00,,---,0.00,VWS V14.01,2013-07-06 04:02:00,
2013-07-06 00:06:00,74.1,71.0,30.14,ENE,77,0.0,0.0,90,0.00,,---,0.00,VWS V14.01,2013-07-06 04:06:00,
2013-07-06 00:11:00,74.1,71.0,30.14,ESE,106,0.0,0.0,90,0.00,,---,0.00,VWS V14.01,2013-07-06 04:11:00,
2013-07-06 00:16:00,74.1,71.0,30.14,ESE,106,0.0,0.0,90,0.00,,---,0.00,VWS V14.01,2013-07-06 04:16:00,
2013-07-06 00:21:00,74.0,70.9,30.14,ESE,106,0.0,0.0,90,0.00,,---,0.00,VWS V14.01,2013-07-06 04:21:00,
2013-07-06 00:26:00,74.0,70.9,30.14,East,90,0.0,0.0,90,0.00,,---,0.00,VWS V14.01,2013-07-06 04:26:00,
2013-07-06 00:31:00,74.2,70.8,30.14,East,91,0.0,1.0,89,0.00,,---,0.00,VWS V14.01,2013-07-06 04:31:00,
2013-07-06 00:36:00,74.3,70.5,30.14,NW,325,0.0,0.0,88,0.00,,---,0.00,VWS V14.01,2013-07-06 04:36:00,
2013-07-06 00:41:00,74.4,70.6,30.14,NW,322,0.0,0.0,88,0.00,,---,0.00,VWS V14.01,2013-07-06 04:41:00,
2013-07-06 00:46:00,74.4,70.6,30.14,NW,322,0.0,0.0,88,0.00,,---,0.00,VWS V14.01,2013-07-06 04:46:00,
2013-07-06 00:51:00,74.2,70.8,30.14,South,188,0.0,0.0,89,0.00,,---,0.00,VWS V14.01,2013-07-06 04:51:00,
2013-07-06 00:56:00,74.1,70.7,30.14,NW,322,0.0,0.0,89,0.00,,---,0.00,VWS V14.01,2013-07-06 04:56:00,
2013-07-06 01:02:00,74.3,70.5,30.14,NE,50,0.0,0.0,88,0.00,,---,0.00,VWS V14.01,2013-07-06 05:02:00,
2013-07-06 01:07:00,74.7,70.6,30.14,NW,315,0.0,0.0,87,0.00,,---,0.00,VWS V14.01,2013-07-06 05:07:00,
2013-07-06 01:12:00,74.8,70.7,30.14,SE,136,0.0,0.0,87,0.00,,---,0.00,VWS V14.01,2013-07-06 05:12:00,
2013-07-06 01:17:00,74.8,70.7,30.14,SE,129,0.0,0.0,87,0.00,,---,0.00,VWS V14.01,2013-07-06 05:17:00,
2013-07-06 01:22:00,74.8,70.7,30.14,SE,129,0.0,0.0,87,0.00,,---,0.00,VWS V14.01,2013-07-06 05:22:00,
2013-07-06 01:27:00,74.7,70.6,30.13,SE,145,0.0,2.0,87,0.00,,---,0.00,VWS V14.01,2013-07-06 05:27:00,
2013-07-06 01:32:00,74.8,70.7,30.13,ESE,118,0.0,0.0,87,0.00,,---,0.00,VWS V14.01,2013-07-06 05:32:00,
2013-07-06 01:38:00,74.9,70.4,30.14,NNE,13,0.0,0.0,86,0.00,,---,0.00,VWS V14.01,2013-07-06 05:38:00,
2013-07-06 01:43:00,75.0,70.5,30.13,NNE,14,0.0,0.0,86,0.00,,---,0.00,VWS V14.01,2013-07-06 05:43:00,
2013-07-06 01:48:00,74.9,70.4,30.13,NE,43,0.0,0.0,86,0.00,,---,0.00,VWS V14.01,2013-07-06 05:48:00,
2013-07-06 01:53:00,74.7,70.6,30.13,NE,43,0.0,0.0,87,0.00,,---,0.00,VWS V14.01,2013-07-06 05:53:00,
2013-07-06 01:58:00,74.6,70.5,30.13,NNW,345,0.0,0.0,87,0.00,,---,0.00,VWS V14.01,2013-07-06 05:58:00,
2013-07-06 02:03:00,74.7,70.6,30.13,NNW,343,0.0,0.0,87,0.00,,---,0.00,VWS V14.01,2013-07-06 06:03:00,
2013-07-06 02:08:00,74.6,70.5,30.13,NW,315,0.0,0.0,87,0.00,,---,0.00,VWS V14.01,2013-07-06 06:08:00,
2013-07-06 02:14:00,74.5,70.4,30.13,NW,315,0.0,0.0,87,0.00,,---,0.00,VWS V14.01,2013-07-06 06:14:00,
2013-07-06 02:19:00,74.3,70.2,30.13,NW,315,0.0,0.0,87,0.00,,---,0.00,VWS V14.01,2013-07-06 06:19:00,
2013-07-06 02:24:00,74.1,70.0,30.13,NW,315,0.0,0.0,87,0.00,,---,0.00,VWS V14.01,2013-07-06 06:24:00,
2013-07-06 02:29:00,73.9,70.1,30.13,NW,315,0.0,0.0,88,0.00,,---,0.00,VWS V14.01,2013-07-06 06:29:00,
2013-07-06 02:34:00,73.7,69.9,30.13,NW,315,0.0,0.0,88,0.00,,---,0.00,VWS V14.01,2013-07-06 06:34:00,
2013-07-06 02:39:00,73.6,69.8,30.13,NW,315,0.0,0.0,88,0.00,,---,0.00,VWS V14.01,2013-07-06 06:39:00,
2013-07-06 02:44:00,73.6,69.8,30.13,NW,315,0.0,0.0,88,0.00,,---,0.00,VWS V14.01,2013-07-06 06:44:00,
2013-07-06 02:49:00,73.6,69.8,30.13,NW,314,0.0,0.0,88,0.00,,---,0.00,VWS V14.01,2013-07-06 06:49:00,
2013-07-06 02:55:00,73.5,69.7,30.13,NW,314,0.0,0.0,88,0.00,,---,0.00,VWS V14.01,2013-07-06 06:55:00,
2013-07-06 03:00:00,73.5,69.7,30.13,NW,315,0.0,0.0,88,0.00,,---,0.00,VWS V14.01,2013-07-06 07:00:00,
2013-07-06 03:05:00,73.4,69.6,30.13,NW,315,0.0,0.0,88,0.00,,---,0.00,VWS V14.01,2013-07-06 07:05:00,
2013-07-06 03:10:00,73.3,69.5,30.14,NW,315,0.0,0.0,88,0.00,,---,0.00,VWS V14.01,2013-07-06 07:10:00,
2013-07-06 03:15:00,73.1,69.3,30.14,NW,315,0.0,0.0,88,0.00,,---,0.00,VWS V14.01,2013-07-06 07:15:00,
2013-07-06 03:20:00,73.0,69.6,30.14,NW,315,0.0,0.0,89,0.00,,---,0.00,VWS V14.01,2013-07-06 07:20:00,
2013-07-06 03:25:00,72.8,69.4,30.13,NW,315,0.0,0.0,89,0.00,,---,0.00,VWS V14.01,2013-07-06 07:25:00,
2013-07-06 03:30:00,72.7,69.6,30.13,NW,315,0.0,0.0,90,0.00,,---,0.00,VWS V14.01,2013-07-06 07:30:00,
2013-07-06 03:36:00,72.7,69.6,30.14,NW,315,0.0,0.0,90,0.00,,---,0.00,VWS V14.01,2013-07-06 07:36:00,
2013-07-06 03:41:00,72.7,69.6,30.13,NW,315,0.0,0.0,90,0.00,,---,0.00,VWS V14.01,2013-07-06 07:41:00,
2013-07-06 03:46:00,72.7,69.6,30.14,NW,315,0.0,0.0,90,0.00,,---,0.00,VWS V14.01,2013-07-06 07:46:00,
2013-07-06 03:51:00,72.6,69.5,30.13,ESE,116,0.0,0.0,90,0.00,,---,0.00,VWS V14.01,2013-07-06 07:51:00,
2013-07-06 03:56:00,72.7,69.6,30.13,NW,314,0.0,0.0,90,0.00,,---,0.00,VWS V14.01,2013-07-06 07:56:00,
2013-07-06 04:01:00,72.8,69.7,30.13,NW,315,0.0,0.0,90,0.00,,---,0.00,VWS V14.01,2013-07-06 08:01:00,
2013-07-06 04:06:00,72.7,69.6,30.13,ENE,69,0.0,1.0,90,0.00,,---,0.00,VWS V14.01,2013-07-06 08:06:00,
2013-07-06 04:11:00,72.6,69.5,30.13,ENE,70,0.0,0.0,90,0.00,,---,0.00,VWS V14.01,2013-07-06 08:11:00,
2013-07-06 04:16:00,72.5,69.4,30.13,ENE,70,0.0,0.0,90,0.00,,---,0.00,VWS V14.01,2013-07-06 08:16:00,
2013-07-06 04:22:00,72.3,69.2,30.13,ENE,69,0.0,0.0,90,0.00,,---,0.00,VWS V14.01,2013-07-06 08:22:00,
2013-07-06 04:27:00,72.1,69.3,30.13,ENE,69,0.0,0.0,91,0.00,,---,0.00,VWS V14.01,2013-07-06 08:27:00,
2013-07-06 04:32:00,72.1,69.3,30.13,ENE,69,0.0,0.0,91,0.00,,---,0.00,VWS V14.01,2013-07-06 08:32:00,
2013-07-06 04:37:00,71.9,69.1,30.13,ENE,70,0.0,0.0,91,0.00,,---,0.00,VWS V14.01,2013-07-06 08:37:00,
2013-07-06 04:42:00,71.9,69.1,30.13,East,96,0.0,0.0,91,0.00,,---,0.00,VWS V14.01,2013-07-06 08:42:00,
2013-07-06 04:47:00,71.8,69.0,30.13,East,96,0.0,0.0,91,0.00,,---,0.00,VWS V14.01,2013-07-06 08:47:00,
2013-07-06 04:52:00,71.7,69.3,30.13,East,96,0.0,0.0,92,0.00,,---,0.00,VWS V14.01,2013-07-06 08:52:00,
2013-07-06 04:58:00,71.6,69.2,30.14,East,96,0.0,0.0,92,0.00,,---,0.00,VWS V14.01,2013-07-06 08:58:00,
2013-07-06 05:03:00,71.5,69.1,30.14,East,96,0.0,0.0,92,0.00,,---,0.00,VWS V14.01,2013-07-06 09:03:00,
2013-07-06 05:08:00,71.4,69.0,30.14,East,96,0.0,0.0,92,0.00,,---,0.00,VWS V14.01,2013-07-06 09:08:00,
2013-07-06 05:09:00,71.4,69.0,30.14,East,96,0.0,0.0,92,0.00,,---,0.00,VWS V14.01,2013-07-06 09:09:00,
2013-07-06 05:14:00,71.3,68.9,30.14,East,96,0.0,0.0,92,0.00,,---,0.00,VWS V14.01,2013-07-06 09:14:00,
2013-07-06 05:19:00,71.2,68.8,30.14,East,96,0.0,0.0,92,0.00,,---,0.00,VWS V14.01,2013-07-06 09:19:00,
2013-07-06 05:24:00,71.1,68.7,30.14,East,96,0.0,0.0,92,0.00,,---,0.00,VWS V14.01,2013-07-06 09:24:00,
2013-07-06 05:29:00,71.1,69.0,30.14,NW,316,0.0,0.0,93,0.00,,---,0.00,VWS V14.01,2013-07-06 09:29:00,
2013-07-06 05:35:00,71.2,69.1,30.15,NW,324,0.0,0.0,93,0.00,,---,0.00,VWS V14.01,2013-07-06 09:35:00,
2013-07-06 05:40:00,71.3,68.9,30.15,NNE,33,0.0,0.0,92,0.00,,---,0.00,VWS V14.01,2013-07-06 09:40:00,
2013-07-06 05:45:00,71.4,69.0,30.15,NE,56,0.0,1.0,92,0.00,,---,0.00,VWS V14.01,2013-07-06 09:45:00,
2013-07-06 05:50:00,71.6,69.2,30.15,South,172,0.0,0.0,92,0.00,,---,0.00,VWS V14.01,2013-07-06 09:50:00,
2013-07-06 05:55:00,71.8,69.3,30.15,WNW,294,0.0,1.0,92,0.00,,---,0.00,VWS V14.01,2013-07-06 09:55:00,
2013-07-06 06:00:00,71.9,69.1,30.15,NNE,20,0.0,0.0,91,0.00,,---,0.00,VWS V14.01,2013-07-06 10:00:00,
2013-07-06 06:06:00,72.0,69.2,30.15,North,11,0.0,0.0,91,0.00,,---,0.00,VWS V14.01,2013-07-06 10:06:00,
2013-07-06 06:11:00,72.1,69.3,30.15,NNW,333,0.0,1.0,91,0.00,,---,0.00,VWS V14.01,2013-07-06 10:11:00,
2013-07-06 06:16:00,72.1,69.3,30.15,NNW,345,0.0,0.0,91,0.00,,---,0.00,VWS V14.01,2013-07-06 10:16:00,
2013-07-06 06:21:00,72.2,69.4,30.15,West,272,0.0,0.0,91,0.00,,---,0.00,VWS V14.01,2013-07-06 10:21:00,
2013-07-06 06:26:00,72.3,69.5,30.15,NW,322,0.0,2.0,91,0.00,,---,0.00,VWS V14.01,2013-07-06 10:26:00,
2013-07-06 06:31:00,72.5,69.4,30.15,NNW,342,0.0,0.0,90,0.00,,---,0.00,VWS V14.01,2013-07-06 10:31:00,
2013-07-06 06:36:00,72.7,69.6,30.16,North,350,0.0,1.0,90,0.00,,---,0.00,VWS V14.01,2013-07-06 10:36:00,
2013-07-06 06:41:00,72.7,69.6,30.16,NE,39,0.0,0.0,90,0.00,,---,0.00,VWS V14.01,2013-07-06 10:41:00,
2013-07-06 06:47:00,72.7,69.6,30.16,North,1,0.0,0.0,90,0.00,,---,0.00,VWS V14.01,2013-07-06 10:47:00,
2013-07-06 06:52:00,72.9,69.8,30.16,North,1,1.0,1.0,90,0.00,,---,0.00,VWS V14.01,2013-07-06 10:52:00,
2013-07-06 06:57:00,72.9,69.8,30.16,North,349,0.0,0.0,90,0.00,,---,0.00,VWS V14.01,2013-07-06 10:57:00,
2013-07-06 07:02:00,73.1,69.7,30.16,NNW,335,0.0,1.0,89,0.00,,---,0.00,VWS V14.01,2013-07-06 11:02:00,
2013-07-06 07:07:00,73.4,70.0,30.16,WNW,288,1.0,1.0,89,0.00,,---,0.00,VWS V14.01,2013-07-06 11:07:00,
2013-07-06 07:12:00,73.5,70.1,30.16,NNW,342,0.0,0.0,89,0.00,,---,0.00,VWS V14.01,2013-07-06 11:12:00,
2013-07-06 07:17:00,73.6,70.2,30.16,NNW,334,0.0,0.0,89,0.00,,---,0.00,VWS V14.01,2013-07-06 11:17:00,
2013-07-06 07:22:00,73.6,70.2,30.17,NNW,329,0.0,0.0,89,0.00,,---,0.00,VWS V14.01,2013-07-06 11:22:00,
2013-07-06 07:27:00,73.6,70.2,30.17,North,351,0.0,1.0,89,0.00,,---,0.00,VWS V14.01,2013-07-06 11:27:00,
2013-07-06 07:32:00,73.7,70.3,30.17,WNW,291,0.0,1.0,89,0.00,,---,0.00,VWS V14.01,2013-07-06 11:32:00,
2013-07-06 07:37:00,73.9,70.5,30.17,NNW,330,0.0,0.0,89,0.00,,---,0.00,VWS V14.01,2013-07-06 11:37:00,
2013-07-06 07:43:00,74.0,70.2,30.17,NW,311,2.0,2.0,88,0.00,,---,0.00,VWS V14.01,2013-07-06 11:43:00,
2013-07-06 07:48:00,74.2,70.4,30.17,NNW,328,0.0,0.0,88,0.00,,---,0.00,VWS V14.01,2013-07-06 11:48:00,
2013-07-06 07:53:00,74.4,70.6,30.17,NW,309,0.0,0.0,88,0.00,,---,0.00,VWS V14.01,2013-07-06 11:53:00,
2013-07-06 07:58:00,74.5,70.7,30.17,NW,305,0.0,0.0,88,0.00,,---,0.00,VWS V14.01,2013-07-06 11:58:00,
2013-07-06 08:03:00,74.7,70.6,30.16,NNW,328,0.0,1.0,87,0.00,,---,0.00,VWS V14.01,2013-07-06 12:03:00,
2013-07-06 08:08:00,74.9,71.1,30.17,NW,308,0.0,0.0,88,0.00,,---,0.00,VWS V14.01,2013-07-06 12:08:00,
2013-07-06 08:13:00,75.0,70.9,30.17,NNW,330,0.0,0.0,87,0.00,,---,0.00,VWS V14.01,2013-07-06 12:13:00,
2013-07-06 08:18:00,75.2,71.1,30.17,NNW,332,0.0,0.0,87,0.00,,---,0.00,VWS V14.01,2013-07-06 12:18:00,
2013-07-06 08:23:00,75.3,71.2,30.16,North,6,0.0,0.0,87,0.00,,---,0.00,VWS V14.01,2013-07-06 12:23:00,
2013-07-06 08:28:00,75.4,71.3,30.17,North,5,0.0,0.0,87,0.00,,---,0.00,VWS V14.01,2013-07-06 12:28:00,
2013-07-06 08:33:00,75.6,71.5,30.17,NNE,16,0.0,0.0,87,0.00,,---,0.00,VWS V14.01,2013-07-06 12:33:00,
2013-07-06 08:39:00,75.7,71.6,30.17,ENE,76,0.0,0.0,87,0.00,,---,0.00,VWS V14.01,2013-07-06 12:39:00,
2013-07-06 08:44:00,76.0,71.5,30.17,NNW,347,1.0,1.0,86,0.00,,---,0.00,VWS V14.01,2013-07-06 12:44:00,
2013-07-06 08:49:00,76.2,71.4,30.17,North,356,0.0,1.0,85,0.00,,---,0.00,VWS V14.01,2013-07-06 12:49:00,
2013-07-06 08:54:00,76.4,71.9,30.17,North,358,0.0,1.0,86,0.00,,---,0.00,VWS V14.01,2013-07-06 12:54:00,
2013-07-06 08:59:00,76.6,71.8,30.17,ENE,70,0.0,0.0,85,0.00,,---,0.00,VWS V14.01,2013-07-06 12:59:00,
2013-07-06 09:04:00,76.8,71.9,30.17,West,277,0.0,0.0,85,0.00,,---,0.00,VWS V14.01,2013-07-06 13:04:00,
2013-07-06 09:09:00,77.1,71.9,30.17,NW,322,0.0,0.0,84,0.00,,---,0.00,VWS V14.01,2013-07-06 13:09:00,
2013-07-06 09:14:00,77.3,72.4,30.17,North,354,0.0,1.0,85,0.00,,---,0.00,VWS V14.01,2013-07-06 13:14:00,
2013-07-06 09:19:00,77.5,72.6,30.17,West,280,0.0,0.0,85,0.00,,---,0.00,VWS V14.01,2013-07-06 13:19:00,
2013-07-06 09:24:00,77.7,72.5,30.17,NW,319,0.0,2.0,84,0.00,,---,0.00,VWS V14.01,2013-07-06 13:24:00,
2013-07-06 09:30:00,77.8,72.6,30.17,NW,325,0.0,0.0,84,0.00,,---,0.00,VWS V14.01,2013-07-06 13:30:00,
2013-07-06 09:35:00,78.0,72.4,30.16,SW,236,0.0,1.0,83,0.00,,---,0.00,VWS V14.01,2013-07-06 13:35:00,
2013-07-06 09:40:00,78.2,73.0,30.16,NW,304,0.0,0.0,84,0.00,,---,0.00,VWS V14.01,2013-07-06 13:40:00,
2013-07-06 09:45:00,78.4,73.2,30.16,NE,49,0.0,0.0,84,0.00,,---,0.00,VWS V14.01,2013-07-06 13:45:00,
2013-07-06 09:50:00,78.6,72.7,30.16,NNW,344,1.0,2.0,82,0.00,,---,0.00,VWS V14.01,2013-07-06 13:50:00,
2013-07-06 09:55:00,78.9,72.6,30.17,NW,306,0.0,1.0,81,0.00,,---,0.00,VWS V14.01,2013-07-06 13:55:00,
2013-07-06 10:00:00,79.2,72.5,30.17,NNE,33,0.0,0.0,80,0.00,,---,0.00,VWS V14.01,2013-07-06 14:00:00,
2013-07-06 10:05:00,79.4,72.7,30.16,WNW,282,0.0,3.0,80,0.00,,---,0.00,VWS V14.01,2013-07-06 14:05:00,
2013-07-06 10:10:00,79.6,73.3,30.16,NW,316,0.0,0.0,81,0.00,,---,0.00,VWS V14.01,2013-07-06 14:10:00,
2013-07-06 10:15:00,79.8,73.1,30.16,NW,311,0.0,0.0,80,0.00,,---,0.00,VWS V14.01,2013-07-06 14:15:00,
2013-07-06 10:20:00,80.1,73.4,30.16,North,349,0.0,1.0,80,0.00,,---,0.00,VWS V14.01,2013-07-06 14:20:00,
2013-07-06 10:25:00,80.3,73.2,30.16,North,7,0.0,0.0,79,0.00,,---,0.00,VWS V14.01,2013-07-06 14:25:00,
2013-07-06 10:30:00,80.4,73.3,30.16,ESE,112,0.0,0.0,79,0.00,,---,0.00,VWS V14.01,2013-07-06 14:30:00,
2013-07-06 10:35:00,80.6,73.1,30.16,ESE,102,0.0,0.0,78,0.00,,---,0.00,VWS V14.01,2013-07-06 14:35:00,
2013-07-06 10:40:00,80.8,72.9,30.16,SE,132,0.0,0.0,77,0.00,,---,0.00,VWS V14.01,2013-07-06 14:40:00,
2013-07-06 10:45:00,80.9,73.4,30.16,SE,124,0.0,0.0,78,0.00,,---,0.00,VWS V14.01,2013-07-06 14:45:00,
2013-07-06 10:51:00,81.1,74.0,30.16,SE,124,0.0,0.0,79,0.00,,---,0.00,VWS V14.01,2013-07-06 14:51:00,
2013-07-06 10:56:00,81.2,72.9,30.16,NW,319,0.0,0.0,76,0.00,,---,0.00,VWS V14.01,2013-07-06 14:56:00,
2013-07-06 11:01:00,81.4,73.9,30.15,NE,46,0.0,0.0,78,0.00,,---,0.00,VWS V14.01,2013-07-06 15:01:00,
2013-07-06 11:06:00,81.6,72.9,30.15,NNW,340,0.0,0.0,75,0.00,,---,0.00,VWS V14.01,2013-07-06 15:06:00,
2013-07-06 11:11:00,81.9,73.2,30.15,NNW,332,0.0,1.0,75,0.00,,---,0.00,VWS V14.01,2013-07-06 15:11:00,
2013-07-06 11:17:00,82.1,73.4,30.15,ESE,103,0.0,0.0,75,0.00,,---,0.00,VWS V14.01,2013-07-06 15:17:00,
2013-07-06 11:22:00,82.3,73.2,30.15,ESE,115,0.0,1.0,74,0.00,,---,0.00,VWS V14.01,2013-07-06 15:22:00,
2013-07-06 11:27:00,82.6,73.9,30.15,ESE,123,1.0,1.0,75,0.00,,---,0.00,VWS V14.01,2013-07-06 15:27:00,
2013-07-06 11:32:00,82.7,73.2,30.15,ENE,58,0.0,1.0,73,0.00,,---,0.00,VWS V14.01,2013-07-06 15:32:00,
2013-07-06 11:37:00,83.2,73.7,30.15,WSW,255,0.0,0.0,73,0.00,,---,0.00,VWS V14.01,2013-07-06 15:37:00,
2013-07-06 11:42:00,83.4,73.8,30.15,SE,132,0.0,0.0,73,0.00,,---,0.00,VWS V14.01,2013-07-06 15:42:00,
2013-07-06 11:47:00,83.3,73.3,30.15,SE,134,0.0,0.0,72,0.00,,---,0.00,VWS V14.01,2013-07-06 15:47:00,
2013-07-06 11:52:00,83.6,74.8,30.15,WNW,284,0.0,0.0,75,0.00,,---,0.00,VWS V14.01,2013-07-06 15:52:00,
2013-07-06 11:57:00,83.8,74.2,30.15,NNE,18,0.0,0.0,73,0.00,,---,0.00,VWS V14.01,2013-07-06 15:57:00,
2013-07-06 12:03:00,84.0,74.8,30.15,North,359,0.0,1.0,74,0.00,,---,0.00,VWS V14.01,2013-07-06 16:03:00,
2013-07-06 12:08:00,84.0,74.0,30.15,NW,315,1.0,2.0,72,0.00,,---,0.00,VWS V14.01,2013-07-06 16:08:00,
2013-07-06 12:13:00,84.0,74.8,30.15,NNE,12,0.0,1.0,74,0.00,,---,0.00,VWS V14.01,2013-07-06 16:13:00,
2013-07-06 12:19:00,84.5,74.9,30.15,ESE,122,0.0,1.0,73,0.00,,---,0.00,VWS V14.01,2013-07-06 16:19:00,
2013-07-06 12:24:00,84.9,74.4,30.15,NE,42,0.0,1.0,71,0.00,,---,0.00,VWS V14.01,2013-07-06 16:24:00,
2013-07-06 12:30:00,84.7,73.8,30.14,North,5,0.0,1.0,70,0.00,,---,0.00,VWS V14.01,2013-07-06 16:30:00,
2013-07-06 12:35:00,84.8,74.8,30.14,North,5,0.0,0.0,72,0.00,,---,0.00,VWS V14.01,2013-07-06 16:35:00,
2013-07-06 12:40:00,85.4,76.2,30.14,East,92,0.0,2.0,74,0.00,,---,0.00,VWS V14.01,2013-07-06 16:40:00,
2013-07-06 12:46:00,86.1,74.8,30.14,NNW,334,0.0,0.0,69,0.00,,---,0.00,VWS V14.01,2013-07-06 16:46:00,
2013-07-06 12:51:00,86.0,74.2,30.14,NNW,334,0.0,1.0,68,0.00,,---,0.00,VWS V14.01,2013-07-06 16:51:00,
2013-07-06 12:56:00,86.3,75.8,30.13,South,170,0.0,0.0,71,0.00,,---,0.00,VWS V14.01,2013-07-06 16:56:00,
2013-07-06 13:01:00,86.7,74.0,30.13,NE,39,1.0,1.0,66,0.00,,---,0.00,VWS V14.01,2013-07-06 17:01:00,
2013-07-06 13:06:00,86.7,74.4,30.13,ENE,59,0.0,0.0,67,0.00,,---,0.00,VWS V14.01,2013-07-06 17:06:00,
2013-07-06 13:12:00,86.8,74.5,30.13,ENE,58,2.0,2.0,67,0.00,,---,0.00,VWS V14.01,2013-07-06 17:12:00,
2013-07-06 13:17:00,86.7,74.4,30.12,NNE,26,0.0,1.0,67,0.00,,---,0.00,VWS V14.01,2013-07-06 17:17:00,
2013-07-06 13:22:00,86.9,73.7,30.12,NNE,14,0.0,1.0,65,0.00,,---,0.00,VWS V14.01,2013-07-06 17:22:00,
2013-07-06 13:28:00,87.5,74.3,30.12,ENE,78,1.0,1.0,65,0.00,,---,0.00,VWS V14.01,2013-07-06 17:28:00,
2013-07-06 13:33:00,87.5,74.8,30.12,SE,129,1.0,1.0,66,0.00,,---,0.00,VWS V14.01,2013-07-06 17:33:00,
2013-07-06 13:39:00,87.4,75.1,30.12,ESE,111,0.0,0.0,67,0.00,,---,0.00,VWS V14.01,2013-07-06 17:39:00,
2013-07-06 13:44:00,87.1,75.7,30.12,South,187,0.0,0.0,69,0.00,,---,0.00,VWS V14.01,2013-07-06 17:44:00,
2013-07-06 13:49:00,87.5,74.8,30.11,ESE,114,0.0,0.0,66,0.00,,---,0.00,VWS V14.01,2013-07-06 17:49:00,
2013-07-06 13:54:00,88.0,75.7,30.11,ESE,111,0.0,1.0,67,0.00,,---,0.00,VWS V14.01,2013-07-06 17:54:00,
2013-07-06 13:59:00,87.1,73.4,30.11,ESE,113,0.0,0.0,64,0.00,,---,0.00,VWS V14.01,2013-07-06 17:59:00,
2013-07-06 14:04:00,86.6,73.4,30.11,NW,318,0.0,0.0,65,0.00,,---,0.00,VWS V14.01,2013-07-06 18:04:00,
2013-07-06 14:10:00,86.3,73.6,30.11,WNW,298,0.0,0.0,66,0.00,,---,0.00,VWS V14.01,2013-07-06 18:10:00,
2013-07-06 14:15:00,86.4,75.0,30.11,WNW,297,0.0,0.0,69,0.00,,---,0.00,VWS V14.01,2013-07-06 18:15:00,
2013-07-06 14:20:00,86.3,75.4,30.10,NNW,334,0.0,0.0,70,0.00,,---,0.00,VWS V14.01,2013-07-06 18:20:00,
2013-07-06 14:25:00,86.6,76.5,30.10,East,94,0.0,0.0,72,0.00,,---,0.00,VWS V14.01,2013-07-06 18:25:00,
2013-07-06 14:30:00,86.5,73.8,30.10,East,98,0.0,1.0,66,0.00,,---,0.00,VWS V14.01,2013-07-06 18:30:00,
2013-07-06 14:35:00,86.4,75.5,30.10,East,89,0.0,0.0,70,0.00,,---,0.00,VWS V14.01,2013-07-06 18:35:00,
2013-07-06 14:40:00,86.3,74.9,30.10,NE,51,0.0,0.0,69,0.00,,---,0.00,VWS V14.01,2013-07-06 18:40:00,
2013-07-06 14:46:00,86.1,73.0,30.10,NE,56,0.0,1.0,65,0.00,,---,0.00,VWS V14.01,2013-07-06 18:46:00,
2013-07-06 14:51:00,86.5,76.4,30.09,SSE,159,0.0,0.0,72,0.00,,---,0.00,VWS V14.01,2013-07-06 18:51:00,
2013-07-06 14:57:00,86.6,74.3,30.09,West,271,0.0,1.0,67,0.00,,---,0.00,VWS V14.01,2013-07-06 18:57:00,
2013-07-06 15:03:00,86.4,74.6,30.09,North,1,0.0,1.0,68,0.00,,---,0.00,VWS V14.01,2013-07-06 19:03:00,
2013-07-06 15:08:00,86.1,74.3,30.09,North,4,1.0,1.0,68,0.00,,---,0.00,VWS V14.01,2013-07-06 19:08:00,
2013-07-06 15:13:00,85.7,73.0,30.09,North,360,0.0,1.0,66,0.00,,---,0.00,VWS V14.01,2013-07-06 19:13:00,
2013-07-06 15:19:00,85.6,73.4,30.09,North,8,1.0,2.0,67,0.00,,---,0.00,VWS V14.01,2013-07-06 19:19:00,
2013-07-06 15:24:00,85.7,73.9,30.09,West,276,0.0,1.0,68,0.00,,---,0.00,VWS V14.01,2013-07-06 19:24:00,
2013-07-06 15:29:00,85.9,72.8,30.08,South,172,0.0,1.0,65,0.00,,---,0.00,VWS V14.01,2013-07-06 19:29:00,
2013-07-06 15:35:00,86.0,72.9,30.08,NNW,329,0.0,1.0,65,0.00,,---,0.00,VWS V14.01,2013-07-06 19:35:00,
2013-07-06 15:42:00,85.9,75.0,30.08,SE,134,0.0,0.0,70,0.00,,---,0.00,VWS V14.01,2013-07-06 19:42:00,
2013-07-06 15:47:00,85.5,75.0,30.08,SSE,153,0.0,1.0,71,0.00,,---,0.00,VWS V14.01,2013-07-06 19:47:00,
2013-07-06 15:52:00,85.7,75.2,30.08,SSE,160,0.0,0.0,71,0.00,,---,0.00,VWS V14.01,2013-07-06 19:52:00,
2013-07-06 15:58:00,85.7,73.9,30.08,WSW,239,0.0,0.0,68,0.00,,---,0.00,VWS V14.01,2013-07-06 19:58:00,
2013-07-06 16:03:00,85.6,74.3,30.08,SE,137,0.0,1.0,69,0.00,,---,0.00,VWS V14.01,2013-07-06 20:03:00,
2013-07-06 16:08:00,85.2,75.2,30.08,SE,132,0.0,0.0,72,0.00,,---,0.00,VWS V14.01,2013-07-06 20:08:00,
2013-07-06 16:14:00,85.0,75.0,30.07,NNW,330,0.0,0.0,72,0.00,,---,0.00,VWS V14.01,2013-07-06 20:14:00,
2013-07-06 16:19:00,85.1,75.1,30.07,North,358,1.0,1.0,72,0.00,,---,0.00,VWS V14.01,2013-07-06 20:19:00,
2013-07-06 16:25:00,85.0,75.4,30.07,SSE,163,0.0,0.0,73,0.00,,---,0.00,VWS V14.01,2013-07-06 20:25:00,
2013-07-06 16:30:00,85.2,74.3,30.07,ENE,66,0.0,2.0,70,0.00,,---,0.00,VWS V14.01,2013-07-06 20:30:00,
2013-07-06 16:36:00,85.6,74.7,30.07,NNW,332,0.0,0.0,70,0.00,,---,0.00,VWS V14.01,2013-07-06 20:36:00,
2013-07-06 16:41:00,85.5,75.0,30.06,SE,143,0.0,0.0,71,0.00,,---,0.00,VWS V14.01,2013-07-06 20:41:00,
2013-07-06 16:47:00,85.9,75.4,30.06,North,351,0.0,0.0,71,0.00,,---,0.00,VWS V14.01,2013-07-06 20:47:00,
2013-07-06 16:52:00,86.2,75.3,30.06,NE,51,0.0,0.0,70,0.00,,---,0.00,VWS V14.01,2013-07-06 20:52:00,
2013-07-06 16:58:00,86.3,74.5,30.06,SE,146,0.0,0.0,68,0.00,,---,0.00,VWS V14.01,2013-07-06 20:58:00,
2013-07-06 17:03:00,85.9,75.4,30.06,ENE,59,0.0,0.0,71,0.00,,---,0.00,VWS V14.01,2013-07-06 21:03:00,
2013-07-06 17:09:00,85.4,74.5,30.06,East,83,0.0,0.0,70,0.00,,---,0.00,VWS V14.01,2013-07-06 21:09:00,
2013-07-06 17:14:00,85.1,75.1,30.06,NE,47,0.0,0.0,72,0.00,,---,0.00,VWS V14.01,2013-07-06 21:14:00,
2013-07-06 17:19:00,85.1,75.1,30.06,NE,48,0.0,0.0,72,0.00,,---,0.00,VWS V14.01,2013-07-06 21:19:00,
2013-07-06 17:24:00,85.0,75.0,30.06,SE,134,0.0,0.0,72,0.00,,---,0.00,VWS V14.01,2013-07-06 21:24:00,
2013-07-06 17:29:00,84.6,74.2,30.05,SSE,167,0.0,3.0,71,0.00,,---,0.00,VWS V14.01,2013-07-06 21:29:00,
2013-07-06 17:34:00,84.4,74.4,30.05,WNW,299,3.0,3.0,72,0.00,,---,0.00,VWS V14.01,2013-07-06 21:34:00,
2013-07-06 17:39:00,84.3,74.3,30.05,SSE,153,0.0,0.0,72,0.00,,---,0.00,VWS V14.01,2013-07-06 21:39:00,
2013-07-06 17:45:00,84.1,73.3,30.05,NNW,338,0.0,1.0,70,0.00,,---,0.00,VWS V14.01,2013-07-06 21:45:00,
2013-07-06 17:50:00,84.0,73.6,30.04,SW,224,1.0,1.0,71,0.00,,---,0.00,VWS V14.01,2013-07-06 21:50:00,
2013-07-06 17:55:00,83.9,74.3,30.05,SW,222,0.0,0.0,73,0.00,,---,0.00,VWS V14.01,2013-07-06 21:55:00,
2013-07-06 18:00:00,83.8,74.2,30.04,SSW,200,0.0,0.0,73,0.00,,---,0.00,VWS V14.01,2013-07-06 22:00:00,
2013-07-06 18:06:00,83.5,72.7,30.04,WSW,253,0.0,0.0,70,0.00,,---,0.00,VWS V14.01,2013-07-06 22:06:00,
2013-07-06 18:11:00,83.3,73.8,30.04,WSW,246,0.0,0.0,73,0.00,,---,0.00,VWS V14.01,2013-07-06 22:11:00,
2013-07-06 18:16:00,83.0,73.5,30.04,SSW,195,0.0,0.0,73,0.00,,---,0.00,VWS V14.01,2013-07-06 22:16:00,
2013-07-06 18:21:00,82.8,73.7,30.04,ESE,117,0.0,0.0,74,0.00,,---,0.00,VWS V14.01,2013-07-06 22:21:00,
2013-07-06 18:26:00,82.6,73.5,30.04,North,352,1.0,1.0,74,0.00,,---,0.00,VWS V14.01,2013-07-06 22:26:00,
2013-07-06 18:32:00,82.3,73.6,30.04,North,353,0.0,0.0,75,0.00,,---,0.00,VWS V14.01,2013-07-06 22:32:00,
2013-07-06 18:37:00,82.1,73.8,30.04,North,355,0.0,1.0,76,0.00,,---,0.00,VWS V14.01,2013-07-06 22:37:00,
2013-07-06 18:42:00,81.9,73.2,30.04,West,265,0.0,0.0,75,0.00,,---,0.00,VWS V14.01,2013-07-06 22:42:00,
2013-07-06 18:47:00,81.8,73.1,30.04,WNW,283,0.0,0.0,75,0.00,,---,0.00,VWS V14.01,2013-07-06 22:47:00,
2013-07-06 18:52:00,81.6,73.3,30.04,WNW,283,0.0,0.0,76,0.00,,---,0.00,VWS V14.01,2013-07-06 22:52:00,
2013-07-06 18:57:00,81.4,73.1,30.04,East,85,0.0,0.0,76,0.00,,---,0.00,VWS V14.01,2013-07-06 22:57:00,
2013-07-06 19:02:00,81.2,72.9,30.04,North,6,0.0,1.0,76,0.00,,---,0.00,VWS V14.01,2013-07-06 23:02:00,
2013-07-06 19:07:00,81.0,72.3,30.04,NW,316,0.0,0.0,75,0.00,,---,0.00,VWS V14.01,2013-07-06 23:07:00,
2013-07-06 19:12:00,81.0,72.7,30.04,SSE,165,0.0,0.0,76,0.00,,---,0.00,VWS V14.01,2013-07-06 23:12:00,
2013-07-06 19:17:00,80.9,72.6,30.04,SSE,157,0.0,0.0,76,0.00,,---,0.00,VWS V14.01,2013-07-06 23:17:00,
2013-07-06 19:23:00,80.6,72.3,30.04,NW,318,0.0,0.0,76,0.00,,---,0.00,VWS V14.01,2013-07-06 23:23:00,
2013-07-06 19:28:00,80.5,72.2,30.04,ENE,73,0.0,0.0,76,0.00,,---,0.00,VWS V14.01,2013-07-06 23:28:00,
2013-07-06 19:33:00,80.4,71.8,30.04,SSW,210,0.0,1.0,75,0.00,,---,0.00,VWS V14.01,2013-07-06 23:33:00,
2013-07-06 19:38:00,80.4,72.2,30.04,SSW,212,0.0,0.0,76,0.00,,---,0.00,VWS V14.01,2013-07-06 23:38:00,
2013-07-06 19:44:00,80.0,71.8,30.04,SSW,211,0.0,0.0,76,0.00,,---,0.00,VWS V14.01,2013-07-06 23:44:00,
2013-07-06 19:49:00,79.7,71.9,30.04,SE,128,0.0,0.0,77,0.00,,---,0.00,VWS V14.01,2013-07-06 23:49:00,
2013-07-06 19:54:00,79.6,71.8,30.04,NNW,338,0.0,0.0,77,0.00,,---,0.00,VWS V14.01,2013-07-06 23:54:00,
2013-07-06 19:59:00,79.4,71.9,30.04,SSE,147,0.0,0.0,78,0.00,,---,0.00,VWS V14.01,2013-07-06 23:59:00,
2013-07-06 20:04:00,79.1,71.7,30.04,ESE,115,0.0,0.0,78,0.00,,---,0.00,VWS V14.01,2013-07-07 00:04:00,
2013-07-06 20:10:00,78.8,71.4,30.04,East,88,0.0,0.0,78,0.00,,---,0.00,VWS V14.01,2013-07-07 00:10:00,
2013-07-06 20:15:00,78.6,71.6,30.04,East,86,0.0,0.0,79,0.00,,---,0.00,VWS V14.01,2013-07-07 00:15:00,
2013-07-06 20:20:00,78.4,71.3,30.04,East,88,0.0,0.0,79,0.00,,---,0.00,VWS V14.01,2013-07-07 00:20:00,
2013-07-06 20:25:00,78.2,71.2,30.04,ESE,108,0.0,0.0,79,0.00,,---,0.00,VWS V14.01,2013-07-07 00:25:00,
2013-07-06 20:31:00,78.0,71.0,30.04,NE,46,0.0,0.0,79,0.00,,---,0.00,VWS V14.01,2013-07-07 00:31:00,
2013-07-06 20:36:00,77.8,71.1,30.04,NE,46,0.0,0.0,80,0.00,,---,0.00,VWS V14.01,2013-07-07 00:36:00,
2013-07-06 20:41:00,77.7,71.4,30.04,SE,128,0.0,0.0,81,0.00,,---,0.00,VWS V14.01,2013-07-07 00:41:00,
2013-07-06 20:47:00,77.5,71.2,30.04,ESE,106,0.0,0.0,81,0.00,,---,0.00,VWS V14.01,2013-07-07 00:47:00,
2013-07-06 20:52:00,77.4,71.1,30.05,ESE,106,0.0,0.0,81,0.00,,---,0.00,VWS V14.01,2013-07-07 00:52:00,
2013-07-06 20:58:00,77.2,71.3,30.05,ESE,106,0.0,0.0,82,0.00,,---,0.00,VWS V14.01,2013-07-07 00:58:00,
2013-07-06 21:03:00,77.0,71.1,30.05,ESE,106,0.0,0.0,82,0.00,,---,0.00,VWS V14.01,2013-07-07 01:03:00,
2013-07-06 21:08:00,76.8,71.2,30.05,ESE,106,0.0,0.0,83,0.00,,---,0.00,VWS V14.01,2013-07-07 01:08:00,
2013-07-06 21:13:00,76.7,71.2,30.05,NW,315,1.0,1.0,83,0.00,,---,0.00,VWS V14.01,2013-07-07 01:13:00,
2013-07-06 21:18:00,76.6,71.1,30.05,ENE,62,0.0,2.0,83,0.00,,---,0.00,VWS V14.01,2013-07-07 01:18:00,
2013-07-06 21:23:00,76.6,71.1,30.05,East,101,0.0,0.0,83,0.00,,---,0.00,VWS V14.01,2013-07-07 01:23:00,
2013-07-06 21:29:00,76.4,71.2,30.06,East,101,0.0,0.0,84,0.00,,---,0.00,VWS V14.01,2013-07-07 01:29:00,
2013-07-06 21:34:00,76.3,70.8,30.06,NE,40,0.0,1.0,83,0.00,,---,0.00,VWS V14.01,2013-07-07 01:34:00,
2013-07-06 21:39:00,76.3,71.1,30.06,NNE,14,0.0,0.0,84,0.00,,---,0.00,VWS V14.01,2013-07-07 01:39:00,
2013-07-06 21:44:00,76.2,71.0,30.06,North,11,0.0,0.0,84,0.00,,---,0.00,VWS V14.01,2013-07-07 01:44:00,
2013-07-06 21:50:00,76.1,70.6,30.07,NNE,24,0.0,0.0,83,0.00,,---,0.00,VWS V14.01,2013-07-07 01:50:00,
2013-07-06 21:56:00,76.2,70.7,30.06,East,98,0.0,0.0,83,0.00,,---,0.00,VWS V14.01,2013-07-07 01:56:00,
2013-07-06 22:02:00,76.2,70.7,30.07,ENE,74,0.0,0.0,83,0.00,,---,0.00,VWS V14.01,2013-07-07 02:02:00,
2013-07-06 22:07:00,76.0,70.5,30.07,ENE,58,0.0,1.0,83,0.00,,---,0.00,VWS V14.01,2013-07-07 02:07:00,
2013-07-06 22:13:00,75.9,70.4,30.07,ENE,69,1.0,1.0,83,0.00,,---,0.00,VWS V14.01,2013-07-07 02:13:00,
2013-07-06 22:18:00,76.1,70.2,30.07,NNW,332,0.0,0.0,82,0.00,,---,0.00,VWS V14.01,2013-07-07 02:18:00,
2013-07-06 22:24:00,76.2,69.9,30.07,NW,322,0.0,3.0,81,0.00,,---,0.00,VWS V14.01,2013-07-07 02:24:00,
2013-07-06 22:29:00,76.5,69.9,30.07,West,267,1.0,1.0,80,0.00,,---,0.00,VWS V14.01,2013-07-07 02:29:00,
2013-07-06 22:34:00,76.6,70.0,30.07,NE,56,0.0,1.0,80,0.00,,---,0.00,VWS V14.01,2013-07-07 02:34:00,
2013-07-06 22:40:00,76.4,69.8,30.07,NE,48,0.0,0.0,80,0.00,,---,0.00,VWS V14.01,2013-07-07 02:40:00,
2013-07-06 22:45:00,76.1,69.5,30.07,NE,41,0.0,0.0,80,0.00,,---,0.00,VWS V14.01,2013-07-07 02:45:00,
2013-07-06 22:50:00,75.9,69.7,30.08,NNW,335,0.0,0.0,81,0.00,,---,0.00,VWS V14.01,2013-07-07 02:50:00,
2013-07-06 22:56:00,75.7,69.8,30.08,NNW,335,0.0,0.0,82,0.00,,---,0.00,VWS V14.01,2013-07-07 02:56:00,
2013-07-06 23:01:00,75.4,69.5,30.08,West,267,0.0,1.0,82,0.00,,---,0.00,VWS V14.01,2013-07-07 03:01:00,
2013-07-06 23:06:00,75.1,69.2,30.08,West,266,0.0,0.0,82,0.00,,---,0.00,VWS V14.01,2013-07-07 03:06:00,
2013-07-06 23:11:00,74.9,69.0,30.08,SE,124,0.0,0.0,82,0.00,,---,0.00,VWS V14.01,2013-07-07 03:11:00,
2013-07-06 23:16:00,74.8,69.3,30.08,SSE,152,0.0,0.0,83,0.00,,---,0.00,VWS V14.01,2013-07-07 03:16:00,
2013-07-06 23:21:00,74.7,68.8,30.08,SSE,152,0.0,0.0,82,0.00,,---,0.00,VWS V14.01,2013-07-07 03:21:00,
2013-07-06 23:27:00,74.6,69.1,30.08,ENE,63,0.0,0.0,83,0.00,,---,0.00,VWS V14.01,2013-07-07 03:27:00,
2013-07-06 23:32:00,74.4,69.3,30.08,ENE,64,0.0,0.0,84,0.00,,---,0.00,VWS V14.01,2013-07-07 03:32:00,
2013-07-06 23:37:00,74.2,69.1,30.08,ENE,67,0.0,0.0,84,0.00,,---,0.00,VWS V14.01,2013-07-07 03:37:00,
2013-07-06 23:44:00,73.8,69.0,30.08,ENE,67,0.0,0.0,85,0.00,,---,0.00,VWS V14.01,2013-07-07 03:44:00,
2013-07-06 23:49:00,73.6,69.2,30.08,ENE,65,0.0,1.0,86,0.00,,---,0.00,VWS V14.01,2013-07-07 03:49:00,
2013-07-06 23:54:00,73.5,69.1,30.08,East,94,0.0,0.0,86,0.00,,---,0.00,VWS V14.01,2013-07-07 03:54:00,
2013-07-06 23:59:00,73.3,68.9,30.08,ESE,108,0.0,0.0,86,0.00,,---,0.00,VWS V14.01,2013-07-07 03:59:00,